Theta_e
313 312 310 306 302 304 303 303 301 302 302 302 301 300 301 299 301 301 300 301 301 301 302 302 302 302 303 303 303 305 305 306 307 307 307 306 304 305 307 307 307 308
303 302 302 302 302 302 301 301 301 301 300 299 300 299 299 299 298 298 298 299 299 299 299 300 300 300 300 300 299 300 299 300 300 303 302 300 300 302 302 303 303 304
301 301 301 300 300 299 299 299 298 298 298 297 297 297 296 296 296 295 296 296 297 297 297 297 298 298 298 297 297 297 297 296 298 297 296 295 296 298 297 298 299 300
298 299 299 298 298 297 297 296 296 296 295 296 295 295 295 295 294 294 294 293 294 294 294 295 295 295 295 295 295 294 294 293 293 293 294 293 293 293 296 296 296 297
296 296 296 296 296 295 295 295 294 294 294 293 294 293 294 293 292 291 290 290 290 290 291 291 291 292 291 292 290 291 290 289 290 291 290 290 291 291 294 294 293 293
295 295 295 295 294 294 294 293 292 293 292 293 292 291 291 289 288 288 288 289 289 290 289 289 289 289 288 288 288 288 288 289 289 289 290 289 290 290 291 291 290 291
294 294 293 293 293 293 293 292 292 291 291 289 288 289 286 288 287 287 286 286 286 287 286 287 287 289 289 289 288 288 288 287 289 288 288 288 286 289 288 287 287 289
292 292 292 292 292 291 290 290 289 289 286 287 288 285 285 286 286 286 286 285 285 286 286 286 287 289 287 288 288 288 288 290 286 287 287 287 286 288 288 289 287 288
290 290 289 289 289 289 288 288 287 286 285 287 286 285 285 286 286 286 285 285 286 286 287 287 287 286 286 286 287 285 286 287 285 285 286 286 287 288 288 287 287 287
289 288 288 288 288 287 287 285 285 285 285 285 284 285 287 286 285 286 286 286 286 286 286 286 286 286 286 285 285 285 286 287 286 284 285 285 286 287 287 286 287 287
287 287 288 287 287 286 286 285 285 285 285 286 286 286 285 286 287 285 286 286 286 285 285 284 285 284 285 285 285 284 284 284 284 285 284 285 285 286 287 286 286 286
287 287 287 286 286 285 285 285 285 285 285 285 284 286 285 284 284 284 283 283 283 283 283 284 284 284 284 284 285 285 284 283 283 283 283 284 284 285 285 285 286 286
286 286 286 285 285 285 285 285 285 284 285 285 283 283 282 283 282 282 283 283 284 283 284 284 284 284 284 283 284 284 284 283 285 284 285 284 284 285 285 285 285 286
285 285 285 285 284 284 284 284 284 284 283 282 281 283 282 283 283 283 283 282 282 282 283 282 282 283 283 283 283 284 284 284 284 285 285 284 284 285 284 285 285 285
285 284 284 284 284 284 284 284 283 281 281 281 281 281 283 282 282 282 282 282 282 282 283 283 284 285 285 284 285 285 284 285 285 284 284 284 284 283 283 284 284 284
285 284 284 284 284 283 282 281 281 281 281 280 281 280 280 281 281 281 281 281 282 282 282 283 284 284 285 288 290 287 285 285 284 284 283 283 283 283 283 283 283 283
284 284 283 283 281 281 280 280 281 280 280 280 280 280 280 280 280 280 280 280 281 281 282 283 284 284 287 290 290 291 288 284 283 283 283 282 282 282 282 283 283 283
283 283 282 281 281 280 280 280 279 278 279 279 279 279 279 279 279 280 280 279 280 280 280 282 282 285 288 289 290 290 290 286 284 283 283 283 282 282 282 282 282 283
282 282 281 281 280 279 279 279 277 277 276 277 277 279 279 279 279 279 279 279 279 279 280 281 280 285 287 289 290 290 290 288 284 283 283 282 282 282 282 282 282 282
282 281 281 280 279 279 278 278 276 278 277 277 277 278 278 278 277 278 279 279 279 279 279 280 280 283 287 288 288 289 289 289 284 283 282 282 282 282 282 281 282 282
281 280 280 279 278 277 276 276 277 276 276 276 276 277 277 278 278 277 279 277 278 276 278 279 280 285 286 287 288 288 289 288 283 282 282 281 282 281 281 281 282 282
280 279 279 278 278 276 275 275 275 275 275 276 276 276 276 276 276 276 277 277 277 276 277 278 279 284 285 286 287 287 288 284 282 281 281 281 281 281 281 282 282 282
279 278 277 276 276 275 273 274 274 274 275 275 275 275 275 275 275 275 276 276 275 275 276 277 277 281 284 285 286 287 286 282 282 281 281 281 281 281 282 282 282 282
278 277 275 274 273 273 274 274 274 273 273 274 274 275 274 275 275 275 274 274 274 274 275 276 277 280 283 284 285 286 286 282 281 280 280 280 280 281 281 281 282 283
276 276 275 273 272 272 273 272 272 273 274 273 273 272 274 274 275 274 274 273 273 274 278 277 276 278 282 284 284 285 284 281 281 280 279 279 280 280 281 281 282 282
275 274 273 272 271 271 271 272 273 274 273 272 272 272 272 272 272 272 273 274 274 275 275 275 276 276 278 283 283 284 284 282 280 279 278 278 279 280 280 280 281 282
Wind_Speed
6 6 6 6 4 5 5 5 4 6 5 5 6 4 5 3 4 5 4 4 4 4 4 4 4 5 5 5 5 5 5 4 4 5 5 5 4 4 5 5 6 5
5 5 6 6 6 5 5 5 5 6 5 5 4 4 4 4 4 4 4 4 4 4 4 4 5 5 5 5 4 5 5 5 5 3 4 4 4 4 4 4 4 5
6 6 6 6 6 6 6 6 6 5 6 4 4 4 3 3 4 4 5 4 5 5 5 5 5 5 5 5 5 5 6 5 6 5 4 4 3 5 4 4 4 4
6 6 7 6 6 6 6 7 6 5 4 6 5 4 4 4 5 5 5 5 5 5 5 5 5 5 5 5 5 6 5 5 4 4 4 4 3 3 5 4 5 5
7 7 7 7 6 7 6 7 6 5 5 4 5 5 6 6 6 5 5 5 5 5 6 6 5 5 5 5 4 5 4 4 4 4 4 5 4 4 4 5 5 6
7 7 6 7 6 7 7 6 5 5 5 6 5 4 4 4 5 5 5 5 5 6 5 5 5 5 4 4 4 3 4 4 5 5 6 6 6 5 4 4 5 6
7 7 7 6 7 6 8 6 6 5 5 4 5 6 4 5 5 4 4 4 4 4 4 4 4 5 4 4 5 5 5 5 5 5 5 5 4 6 5 4 4 5
7 5 6 6 8 7 8 7 6 6 4 5 6 4 4 4 4 4 4 4 4 4 4 4 4 4 5 5 6 7 6 4 4 4 5 5 5 6 6 5 5 6
7 7 7 7 9 7 7 6 5 5 4 6 5 4 4 4 4 5 4 4 4 5 5 5 5 5 5 5 6 4 4 5 4 4 4 5 6 6 7 6 6 6
7 6 8 7 8 6 7 5 5 4 3 4 4 4 6 5 4 5 5 5 5 6 5 5 5 5 5 4 4 4 4 5 4 4 4 4 5 6 7 6 7 7
7 6 8 7 7 6 6 5 4 4 4 5 5 5 4 5 6 5 6 5 6 4 4 4 4 4 4 5 4 4 4 4 4 4 4 5 5 6 7 6 7 7
6 6 7 6 6 5 5 4 5 5 5 4 4 5 5 5 4 5 3 4 4 4 4 4 4 4 4 4 5 5 4 4 4 4 4 5 5 6 6 6 7 9
6 6 6 5 5 5 4 4 5 5 5 5 4 4 4 4 4 4 4 3 4 4 4 4 4 4 4 4 4 4 4 4 5 5 5 5 5 6 7 7 7 8
5 5 5 5 4 4 4 5 5 5 5 4 4 4 3 2 2 3 4 3 3 4 4 4 4 4 4 4 4 4 5 5 5 6 7 7 7 7 7 8 8 8
5 4 4 5 5 5 6 5 5 4 3 3 3 3 2 2 2 2 3 4 3 3 4 4 4 5 4 4 6 6 5 6 6 6 7 8 8 8 7 8 8 8
6 5 5 5 6 5 4 4 3 3 3 3 4 3 3 3 3 3 3 3 4 5 5 4 5 4 6 11 9 6 6 6 6 7 7 7 8 9 9 7 8 8
6 5 5 6 4 4 3 3 3 3 3 4 4 3 3 3 3 3 4 3 4 4 6 6 6 6 10 11 11 13 7 5 6 7 6 7 8 9 10 11 10 9
5 5 5 4 4 4 3 3 3 4 4 4 3 3 4 3 3 3 4 4 4 4 5 6 6 8 12 12 12 12 11 8 6 7 7 7 7 9 9 10 11 12
5 5 4 4 4 3 3 4 4 4 3 3 3 3 3 3 4 4 4 4 3 4 5 6 6 8 11 12 11 12 13 12 7 6 8 9 9 9 9 10 10 11
5 5 4 4 3 4 4 4 3 3 3 3 3 3 3 4 4 4 4 4 4 4 5 6 7 8 11 12 12 14 15 12 6 7 7 8 9 9 9 10 10 11
5 4 4 4 4 4 4 3 2 2 3 3 3 3 4 4 5 4 5 4 4 4 4 6 6 11 11 12 13 16 17 11 6 7 8 9 9 8 9 10 11 10
5 4 4 4 4 4 3 2 2 2 3 3 3 3 3 3 4 4 5 5 4 4 5 7 6 11 13 13 14 15 18 9 7 8 9 10 11 10 9 9 9 9
4 5 4 4 3 3 2 1 2 3 3 3 3 4 4 4 4 4 4 4 4 4 5 7 5 7 13 15 15 17 12 8 8 9 10 11 12 12 10 10 10 9
4 5 4 4 3 2 1 1 2 2 3 2 3 4 4 4 4 4 4 4 4 4 4 6 7 6 11 14 17 18 13 9 8 9 11 11 12 12 11 10 12 17
5 4 4 4 3 1 1 1 2 3 3 3 4 4 5 5 4 4 4 4 4 4 6 6 7 6 10 15 18 19 14 8 8 8 10 12 12 13 13 12 12 12
4 4 4 3 1 1 1 2 2 3 3 3 4 4 4 4 3 3 4 5 4 5 5 5 7 7 6 14 17 18 19 11 8 8 11 13 13 12 13 13 13 13
Wind_Direction
75 81 98 94 72 88 107 102 95 92 84 73 78 64 63 41 32 39 33 29 31 32 22 25 27 27 25 25 21 21 15 6 355 350 355 357 346 349 343 337 334 330
74 85 84 88 88 80 73 82 79 85 78 73 70 71 51 49 34 50 39 34 31 30 25 27 27 26 24 24 18 24 13 11 359 358 5 4 344 354 344 338 336 340
98 96 99 103 100 87 85 75 76 69 76 70 62 55 55 50 45 41 43 40 38 27 24 24 24 21 20 20 16 18 16 3 357 345 8 358 344 355 332 330 327 325
92 97 99 94 94 95 87 83 70 71 68 64 53 44 49 39 44 39 36 35 40 31 23 28 25 20 20 18 20 16 8 357 342 351 356 344 345 343 325 322 315 314
99 93 91 91 91 92 90 91 89 84 79 76 61 43 46 37 34 33 30 31 39 30 27 22 18 20 14 15 18 15 359 349 336 355 358 340 328 350 322 331 319 310
88 93 95 100 104 107 98 91 88 81 75 64 56 55 52 47 44 34 26 28 24 35 28 23 20 7 13 8 15 19 2 357 345 4 356 345 328 329 323 314 308 304
104 103 102 105 97 89 88 81 74 70 67 75 67 48 49 47 44 33 26 26 31 36 41 29 28 14 12 16 19 7 5 2 351 359 350 326 326 315 314 308 297 291
106 102 100 93 89 81 79 76 67 65 66 58 64 41 56 53 47 33 33 28 33 26 30 27 22 20 10 21 15 5 350 356 350 343 336 317 319 308 304 301 296 292
102 96 95 90 86 79 79 73 70 64 59 73 64 49 51 60 43 38 27 25 24 18 18 16 11 6 4 13 3 354 335 322 322 327 322 316 316 305 304 304 303 291
94 98 90 88 85 85 83 77 76 75 76 74 67 53 41 24 42 29 26 19 14 6 8 1 355 350 342 343 327 324 317 307 308 314 310 304 297 297 299 301 293 298
95 93 94 87 89 86 87 85 76 72 58 55 46 41 34 30 17 25 20 9 358 346 339 336 327 322 325 320 315 304 294 285 284 293 300 296 290 288 291 291 292 286
98 92 89 91 92 86 84 77 69 58 53 46 50 37 24 27 26 1 8 334 329 323 320 315 313 314 305 300 300 302 296 283 274 280 281 282 286 286 288 291 292 292
93 91 90 89 87 85 75 65 60 54 48 37 24 47 40 13 2 349 319 322 311 320 313 305 304 298 292 289 289 288 286 289 294 293 292 292 288 290 290 288 282 280
96 94 88 86 80 73 66 59 48 39 33 24 36 26 14 358 334 309 294 305 297 301 294 295 295 298 294 289 288 293 298 294 294 300 301 298 294 289 284 278 275 272
98 89 82 76 68 61 52 43 35 26 21 20 27 17 360 327 294 294 316 320 312 304 307 310 309 302 299 306 313 310 305 306 304 300 296 294 288 280 273 271 273 267
101 94 88 76 63 57 49 39 31 16 15 13 10 4 338 313 315 321 336 324 325 322 319 314 305 295 298 303 304 299 301 296 293 286 285 283 287 291 288 275 270 276
104 102 94 86 83 64 48 35 18 13 18 11 1 345 321 315 324 332 326 322 316 314 316 315 310 306 303 301 300 304 302 297 288 290 284 283 286 291 297 301 296 282
107 102 95 97 87 71 57 34 25 24 14 358 338 327 311 319 333 319 319 318 318 311 300 293 293 289 293 294 297 303 316 311 304 300 300 295 290 291 294 297 298 298
106 104 104 94 82 71 58 40 33 18 356 340 316 297 310 329 319 327 312 310 298 292 289 288 287 285 293 299 306 319 320 320 306 298 299 297 296 294 292 293 295 299
113 109 103 90 73 59 51 39 27 353 316 301 301 319 332 322 320 313 300 295 286 281 284 285 293 294 307 313 316 320 319 321 307 303 297 290 292 293 293 294 294 297
115 111 99 82 66 58 51 36 10 337 328 312 312 310 318 313 309 310 297 290 289 281 282 292 293 309 318 322 325 325 325 328 311 303 299 296 295 293 290 290 293 293
118 111 97 82 69 58 56 20 349 323 307 308 315 316 311 301 295 280 281 296 298 305 313 315 321 327 326 328 331 331 331 328 321 314 312 308 305 305 300 294 293 294
117 111 96 81 78 68 45 357 333 317 313 311 330 308 299 289 275 277 278 293 309 318 323 316 326 333 331 331 334 335 332 328 326 322 316 314 310 310 309 306 301 299
112 106 100 83 78 78 33 322 307 303 281 288 293 296 295 277 279 286 289 291 304 317 312 314 320 335 335 333 336 338 336 330 325 323 315 313 312 310 310 305 300 300
107 97 92 86 76 53 11 298 290 275 276 292 277 266 269 280 289 299 309 313 314 315 318 321 317 333 344 339 338 339 339 332 328 323 316 313 313 312 311 309 306 306
96 89 79 88 84 10 321 280 270 294 290 273 275 260 271 287 287 306 329 330 329 333 337 337 329 331 344 340 339 338 338 334 327 327 321 315 313 311 314 313 313 312